Flight Track Log - Related Links

Times and Time Zones

All times are in EDT time to prevent confusion due to time zone crossing. See the UAL129 flight status page for this flight to view local times or setup timezone preferences in your user account.

Time Position Orientation Groundspeed Altitude Reporting Facility
EDT Latitude Longitude Course Direction KTS MPH feet Rate Location/Type
Tue 10:36:45 PM 29.9762 -95.2956 144° Southeast 191 220 600  Level FlightAware ADS-B
Tue 10:36:49 PM 29.9762 -95.2919 90° East 190 219 800 2,667 Climbing FlightAware ADS-B
Tue 10:36:54 PM 29.9758 -95.2869 95° East 191 220 1,000 3,000 Climbing FlightAware ADS-B
Tue 10:36:57 PM 29.9753 -95.2833 99° East 190 219 1,200 3,000 Climbing FlightAware ADS-B
Tue 10:37:00 PM 29.9746 -95.2805 106° East 190 219 1,300 1,333 Climbing FlightAware ADS-B
Tue 10:37:06 PM 29.9732 -95.2750 106° East 192 221 1,400 1,667 Climbing FlightAware ADS-B
Tue 10:37:18 PM 29.9696 -95.2629 109° East 199 229 1,800 1,565 Climbing FlightAware ADS-B
Tue 10:37:29 PM 29.9660 -95.2518 111° Southeast 208 239 2,000 1,043 Climbing FlightAware ADS-B
Tue 10:37:41 PM 29.9615 -95.2380 111° Southeast 225 259 2,200 1,071 Climbing FlightAware ADS-B
Tue 10:37:57 PM 29.9554 -95.2198 111° Southeast 242 278 2,500 1,636 Climbing FlightAware ADS-B
Tue 10:38:14 PM 29.9486 -95.1990 111° Southeast 254 292 3,100 2,250 Climbing FlightAware ADS-B
Tue 10:38:29 PM 29.9416 -95.1791 112° Southeast 259 298 3,700 2,211 Climbing FlightAware ADS-B
Tue 10:38:33 PM 29.9401 -95.1746 111° Southeast 263 303 3,800 1,714 Climbing FlightAware ADS-B
Tue 10:38:36 PM 29.9389 -95.1702 107° East 267 307 3,900 1,714 Climbing FlightAware ADS-B
Tue 10:38:40 PM 29.9381 -95.1652 100° East 271 312 4,000 2,000 Climbing FlightAware ADS-B
Tue 10:38:45 PM 29.9376 -95.1580 95° East 275 316 4,200 2,700 Climbing FlightAware ADS-B
Tue 10:39:00 PM 29.9374 -95.1350 91° East 276 318 4,900 2,903 Climbing FlightAware ADS-B
Tue 10:39:16 PM 29.9372 -95.1120 91° East 276 318 5,700 2,903 Climbing FlightAware ADS-B
Tue 10:39:31 PM 29.9371 -95.0900 90° East 279 321 6,400 2,667 Climbing FlightAware ADS-B
Tue 10:39:34 PM 29.9371 -95.0850 90° East 279 321 6,500 2,400 Climbing FlightAware ADS-B
Tue 10:39:46 PM 29.9369 -95.0675 91° East 282 325 7,000 2,667 Climbing FlightAware ADS-B
Tue 10:40:01 PM 29.9367 -95.0443 91° East 284 327 7,700 2,526 Climbing FlightAware ADS-B
Tue 10:40:05 PM 29.9367 -95.0392 90° East 284 327 7,800 1,714 Climbing FlightAware ADS-B
Tue 10:40:08 PM 29.9365 -95.0344 93° East 285 328 7,900 2,000 Climbing FlightAware ADS-B
Tue 10:40:11 PM 29.9362 -95.0299 94° East 286 329 8,000 3,000 Climbing FlightAware ADS-B
Tue 10:40:14 PM 29.9358 -95.0254 96° East 286 329 8,200 3,000 Climbing FlightAware ADS-B
Tue 10:40:17 PM 29.9350 -95.0203 100° East 286 329 8,300 1,800 Climbing FlightAware ADS-B
Tue 10:40:24 PM 29.9329 -95.0103 104° East 285 328 8,500 2,182 Climbing FlightAware ADS-B
Tue 10:40:28 PM 29.9314 -95.0041 106° East 285 328 8,700 3,000 Climbing FlightAware ADS-B
Tue 10:40:32 PM 29.9298 -94.9986 109° East 285 328 8,900 2,000 Climbing FlightAware ADS-B
Tue 10:40:37 PM 29.9275 -94.9911 109° East 286 329 9,000 1,846 Climbing FlightAware ADS-B
Tue 10:40:45 PM 29.9239 -94.9803 111° Southeast 289 333 9,300 2,400 Climbing FlightAware ADS-B
Tue 10:40:52 PM 29.9205 -94.9694 110° East 291 335 9,600 2,000 Climbing FlightAware ADS-B
Tue 10:41:00 PM 29.9171 -94.9585 110° East 294 338 9,800 1,800 Climbing FlightAware ADS-B
Tue 10:41:22 PM 29.9062 -94.9248 110° East 305 351 10,500 1,600 Climbing FlightAware ADS-B
Tue 10:41:30 PM 29.9027 -94.9135 110° East 312 359 10,600 909 Climbing FlightAware ADS-B
Tue 10:41:55 PM 29.8896 -94.8723 110° East 333 383 11,000 1,000 Climbing FlightAware ADS-B
Tue 10:42:00 PM 29.8869 -94.8642 111° Southeast 341 392 11,100 1,000 Climbing FlightAware ADS-B
Tue 10:42:25 PM 29.8724 -94.8197 111° Southeast 364 419 11,500 1,000 Climbing FlightAware ADS-B
Tue 10:42:30 PM 29.8693 -94.8099 110° East 369 425 11,600 1,059 Climbing FlightAware ADS-B
Tue 10:42:59 PM 29.8518 -94.7557 110° East 394 453 12,100 1,000 Climbing FlightAware ADS-B
Tue 10:43:00 PM 29.8508 -94.7528 112° Southeast 395 455 12,100 1,600 Level FlightAware ADS-B
Tue 10:43:29 PM 29.8320 -94.6949 111° Southeast 407 468 12,900 1,742 Climbing FlightAware ADS-B
Tue 10:43:31 PM 29.8309 -94.6916 111° Southeast 410 472 13,000 1,875 Climbing FlightAware ADS-B
Tue 10:44:01 PM 29.8107 -94.6295 111° Southeast 421 484 13,900 1,875 Climbing FlightAware ADS-B
Tue 10:44:03 PM 29.8094 -94.6253 110° East 419 482 14,000 2,100 Climbing FlightAware ADS-B
Tue 10:44:21 PM 29.7967 -94.5864 111° Southeast 427 491 14,600 1,742 Climbing FlightAware ADS-B
Tue 10:44:34 PM 29.7897 -94.5585 106° East 427 491 14,900 1,800 Climbing FlightAware ADS-B
Tue 10:44:51 PM 29.7820 -94.5180 102° East 441 507 15,500 2,045 Climbing FlightAware ADS-B
Tue 10:45:18 PM 29.7703 -94.4571 102° East 445 512 16,400 1,935 Climbing FlightAware ADS-B
Tue 10:45:22 PM 29.7686 -94.4478 102° East 447 514 16,500 1,765 Climbing FlightAware ADS-B
Tue 10:45:52 PM 29.7539 -94.3765 103° East 457 526 17,400 1,756 Climbing FlightAware ADS-B
Tue 10:46:03 PM 29.7485 -94.3516 104° East 458 527 17,700 1,800 Climbing FlightAware ADS-B
Tue 10:46:22 PM 29.7383 -94.3044 104° East 467 537 18,300 1,800 Climbing FlightAware ADS-B
Tue 10:46:53 PM 29.7237 -94.2294 103° East 475 547 19,200 1,742 Climbing FlightAware ADS-B
Tue 10:47:24 PM 29.7093 -94.1544 102° East 481 554 20,100 1,869 Climbing FlightAware ADS-B
Tue 10:47:54 PM 29.6942 -94.0766 103° East 485 558 21,100 2,066 Climbing FlightAware ADS-B
Tue 10:48:25 PM 29.6795 -94.0013 103° East 483 556 22,200 2,000 Climbing FlightAware ADS-B
Tue 10:48:42 PM 29.6707 -93.9578 103° East 488 562 22,700 1,600 Climbing FlightAware ADS-B
Tue 10:48:55 PM 29.6642 -93.9244 103° East 491 565 23,000 1,371 Climbing FlightAware ADS-B
Tue 10:49:17 PM 29.6532 -93.8694 103° East 497 572 23,500 1,355 Climbing FlightAware ADS-B
Tue 10:49:26 PM 29.6488 -93.8465 102° East 499 574 23,700 1,231 Climbing FlightAware ADS-B
Tue 10:49:56 PM 29.6331 -93.7676 103° East 508 585 24,300 1,091 Climbing FlightAware ADS-B
Tue 10:50:10 PM 29.6258 -93.7303 103° East 512 589 24,500 1,400 Climbing FlightAware ADS-B
Tue 10:50:26 PM 29.6170 -93.6868 103° East 513 590 25,000 1,787 Climbing FlightAware ADS-B
Tue 10:50:57 PM 29.6010 -93.6060 103° East 514 592 25,900 1,574 Climbing FlightAware ADS-B
Tue 10:51:27 PM 29.5850 -93.5259 103° East 517 595 26,600 1,500 Climbing FlightAware ADS-B
Tue 10:51:57 PM 29.5691 -93.4460 103° East 517 595 27,400 1,500 Climbing FlightAware ADS-B
Tue 10:52:27 PM 29.5529 -93.3650 103° East 519 597 28,100 1,400 Climbing FlightAware ADS-B
Tue 10:52:57 PM 29.5366 -93.2836 103° East 520 598 28,800 1,258 Climbing FlightAware ADS-B
Tue 10:53:29 PM 29.5195 -93.1987 103° East 523 602 29,400 1,048 Climbing FlightAware ADS-B
Tue 10:54:00 PM 29.5026 -93.1141 103° East 528 608 29,900 968 Climbing FlightAware ADS-B
Tue 10:54:31 PM 29.4855 -93.0307 103° East 530 610 30,400 1,065 Climbing FlightAware ADS-B
Tue 10:55:02 PM 29.4680 -92.9443 103° East 531 611 31,000 590 Climbing FlightAware ADS-B
Tue 10:55:32 PM 29.4511 -92.8621 103° East 530 610 31,000  Level FlightAware ADS-B
Tue 10:56:09 PM 29.4309 -92.7627 103° East 527 606 31,000  Level FlightAware ADS-B
Tue 10:56:48 PM 29.4093 -92.6576 103° East 523 602 31,000  Level FlightAware ADS-B
Tue 10:57:26 PM 29.3880 -92.5541 103° East 521 600 31,000  Level FlightAware ADS-B
Tue 10:58:25 PM 29.3552 -92.3955 103° East 520 598 31,000  Level FlightAware ADS-B
Tue 10:59:02 PM 29.3344 -92.2963 104° East 520 598 31,000  Level FlightAware ADS-B
Tue 10:59:36 PM 29.3161 -92.2085 103° East 519 597 31,000  Level FlightAware ADS-B
Tue 11:00:07 PM 29.2982 -92.1240 104° East 518 596 31,000  Level FlightAware ADS-B
Tue 11:00:38 PM 29.2810 -92.0426 104° East 517 595 31,000  Level FlightAware ADS-B
Tue 11:01:09 PM 29.2637 -91.9600 103° East 518 596 31,000  Level FlightAware ADS-B
Tue 11:01:42 PM 29.2447 -91.8705 104° East 518 596 31,000  Level FlightAware ADS-B
Tue 11:02:24 PM 29.2215 -91.7610 104° East 517 595 31,000  Level FlightAware ADS-B
Tue 11:02:57 PM 29.2025 -91.6719 104° East 516 594 31,000  Level FlightAware ADS-B
Tue 11:03:33 PM 29.1823 -91.5780 104° East 515 593 31,000  Level FlightAware ADS-B
Tue 11:04:25 PM 29.1527 -91.4396 104° East 515 593 31,000  Level FlightAware ADS-B
Tue 11:05:40 PM 29.1186 -91.2442 104° East 515 593 31,000  Level Houston Center
Tue 11:06:41 PM 29.0850 -91.0853 104° East 514 592 31,000  Level Houston Center
Tue 11:07:42 PM 29.0500 -90.9275 104° East 516 594 31,000  Level Houston Center
Tue 11:08:43 PM 29.0156 -90.7703 104° East 513 590 31,000  Level Houston Center
Tue 11:09:44 PM 28.9803 -90.6125 104° East 514 592 31,000 496 Level Houston Center
Tue 11:10:44 PM 28.9461 -90.4564 104° East 511 588 32,000 793 Climbing Houston Center
Tue 11:11:45 PM 28.9106 -90.2956 104° East 520 598 32,600 492 Climbing Houston Center
Tue 11:12:46 PM 28.8739 -90.1353 105° East 525 604 33,000 197 Climbing Houston Center
Tue 11:13:47 PM 28.8369 -89.9719 104° East 531 611 33,000  Level Houston Center
Tue 11:14:48 PM 28.8003 -89.8094 104° East 531 611 33,000  Level Houston Center
Tue 11:15:49 PM 28.7625 -89.6464 105° East 534 615 33,000 -49 Level Houston Center
Tue 11:16:50 PM 28.7167 -89.4481 105° East 541 623 32,900  Descending Houston Center
Tue 11:17:51 PM 28.6794 -89.2839 104° East 538 619 33,000 50 Climbing Houston Center
Tue 11:18:51 PM 28.6414 -89.1206 105° East 536 617 33,000  Level Houston Center
Tue 11:19:52 PM 28.6028 -88.9569 105° East 537 618 33,000  Level Houston Center
Tue 11:20:53 PM 28.5639 -88.7936 105° East 537 618 33,000  Level Houston Center
Tue 11:21:54 PM 28.5256 -88.6300 105° East 536 617 33,000  Level Houston Center
Tue 11:22:55 PM 28.4864 -88.4664 105° East 537 618 33,000  Level Houston Center
Tue 11:23:55 PM 28.4475 -88.3036 105° East 536 617 33,000  Level Houston Center
Tue 11:24:56 PM 28.4081 -88.1414 105° East 534 615 33,000  Level Houston Center
Tue 11:25:57 PM 28.3675 -87.9744 105° East 534 615 33,000 -49 Level Houston Center
Tue 11:26:58 PM 28.3206 -87.8150 108° East 533 613 32,900  Descending Houston Center
Tue 11:27:59 PM 28.2731 -87.6553 109° East 534 615 33,000 50 Climbing Houston Center
Tue 11:28:59 PM 28.2269 -87.4981 108° East 528 608 33,000  Level Houston Center
Tue 11:30:08 PM 28.1783 -87.3164 107° East 519 597 33,000  Level Jacksonville Center
Tue 11:31:08 PM 28.1272 -87.1542 110° East 527 606 33,000  Level Jacksonville Center
Tue 11:32:08 PM 28.0803 -86.9994 109° East 528 608 33,000  Level Jacksonville Center
Tue 11:33:08 PM 28.0350 -86.8425 108° East 528 608 33,000  Level Jacksonville Center
Tue 11:38:42 PM 27.7680 -85.9690 108° East 528 608 33,000  Level FlightAware ADS-B
Tue 11:39:22 PM 27.7400 -85.8750 109° East 529 609 33,000  Level FlightAware ADS-B
Tue 11:40:07 PM 27.7080 -85.7630 108° East 529 609 33,000  Level FlightAware ADS-B
Tue 11:40:47 PM 27.6840 -85.6730 107° East 529 609 33,000  Level FlightAware ADS-B
Tue 11:41:27 PM 27.6590 -85.5830 107° East 529 609 33,000  Level FlightAware ADS-B
Tue 11:42:42 PM 27.5770 -85.3380 111° Southeast 531 611 33,000  Level FlightAware ADS-B
Tue 11:44:07 PM 27.5050 -85.1410 112° Southeast 534 615 33,000  Level FlightAware ADS-B
Tue 11:44:47 PM 27.4730 -85.0530 112° Southeast 534 615 33,000  Level FlightAware ADS-B
Tue 11:45:32 PM 27.4140 -84.9000 113° Southeast 535 616 33,000  Level FlightAware ADS-B
Tue 11:46:42 PM 27.3520 -84.7300 112° Southeast 531 611 33,000  Level FlightAware ADS-B
Tue 11:47:22 PM 27.3130 -84.6250 113° Southeast 530 610 33,000  Level FlightAware ADS-B
Tue 11:48:07 PM 27.2710 -84.5110 112° Southeast 530 610 33,000  Level FlightAware ADS-B
Tue 11:48:42 PM 27.2370 -84.4200 113° Southeast 530 610 33,000  Level FlightAware ADS-B
Tue 11:49:27 PM 27.1940 -84.3060 113° Southeast 530 610 33,000  Level FlightAware ADS-B
Tue 11:50:12 PM 27.1550 -84.1980 112° Southeast 529 609 33,000  Level FlightAware ADS-B
Tue 11:50:57 PM 27.1090 -84.0800 114° Southeast 33,000  Level FlightAware ADS-B
Tue 11:51:37 PM 27.0720 -83.9820 113° Southeast 527 606 33,000  Level FlightAware ADS-B
Tue 11:52:22 PM 27.0340 -83.8760 112° Southeast 527 606 33,000  Level FlightAware ADS-B
Tue 11:52:52 PM 27.0110 -83.8110 112° Southeast 527 606 33,000  Level FlightAware ADS-B
Tue 11:53:42 PM 26.9720 -83.7040 112° Southeast 527 606 33,000  Level FlightAware ADS-B
Tue 11:54:27 PM 26.9060 -83.5470 115° Southeast 33,000  Level FlightAware ADS-B
Tue 11:55:07 PM 26.8700 -83.4500 113° Southeast 530 610 33,000  Level FlightAware ADS-B
Tue 11:55:42 PM 26.8300 -83.3480 114° Southeast 531 611 33,000  Level FlightAware ADS-B
Tue 11:56:32 PM 26.7880 -83.2370 113° Southeast 531 611 33,000  Level FlightAware ADS-B
Tue 11:57:12 PM 26.7460 -83.1290 114° Southeast 33,000  Level FlightAware ADS-B
Tue 11:57:47 PM 26.7140 -83.0460 113° Southeast 532 612 33,000  Level FlightAware ADS-B
Tue 11:58:37 PM 26.6640 -82.9180 114° Southeast 33,000  Level FlightAware ADS-B
Tue 11:59:17 PM 26.6230 -82.8130 114° Southeast 534 615 33,000  Level FlightAware ADS-B
Tue 11:59:57 PM 26.5870 -82.7210 114° Southeast 533 613 33,000  Level FlightAware ADS-B
Wed 12:00:42 AM 26.5420 -82.6070 114° Southeast 533 613 33,000  Level FlightAware ADS-B
Wed 12:01:17 AM 26.5070 -82.5180 114° Southeast 531 611 33,000  Level FlightAware ADS-B
Wed 12:02:22 AM 26.4370 -82.3410 114° Southeast 533 613 33,000  Level FlightAware ADS-B
Wed 12:03:32 AM 26.3680 -82.1650 114° Southeast 531 611 33,000  Level FlightAware ADS-B
Wed 12:04:42 AM 26.2980 -81.9910 114° Southeast 531 611 33,000  Level FlightAware ADS-B
Wed 12:05:37 AM 26.2430 -81.8520 114° Southeast 532 612 33,000  Level FlightAware ADS-B
Wed 12:07:02 AM 26.1570 -81.6380 114° Southeast 533 613 33,000  Level FlightAware ADS-B
Wed 12:08:12 AM 26.0860 -81.4630 114° Southeast 533 613 33,000  Level FlightAware ADS-B
Wed 12:09:32 AM 26.0040 -81.2600 114° Southeast 533 613 33,000  Level FlightAware ADS-B
Wed 12:10:42 AM 25.9320 -81.0830 114° Southeast 534 615 33,000  Level FlightAware ADS-B
Wed 12:11:57 AM 25.8560 -80.8960 114° Southeast 534 615 33,000  Level FlightAware ADS-B
Wed 12:12:27 AM 25.8240 -80.8190 115° Southeast 535 616 33,000  Level FlightAware ADS-B
Wed 12:13:12 AM 25.7780 -80.7070 114° Southeast 539 620 33,000  Level FlightAware ADS-B
Wed 12:14:27 AM 25.7010 -80.5180 114° Southeast 539 620 33,000  Level FlightAware ADS-B
Wed 12:15:37 AM 25.6280 -80.3420 115° Southeast 540 621 33,000  Level FlightAware ADS-B
Wed 12:16:47 AM 25.5550 -80.1670 115° Southeast 539 620 33,000  Level FlightAware ADS-B
Wed 12:17:57 AM 25.4820 -79.9910 115° Southeast 540 621 33,000  Level FlightAware ADS-B
Wed 12:19:12 AM 25.4030 -79.8040 115° Southeast 540 621 33,000  Level FlightAware ADS-B
Wed 12:20:17 AM 25.3360 -79.6440 115° Southeast 540 621 33,000  Level FlightAware ADS-B
Wed 12:21:32 AM 25.2560 -79.4540 115° Southeast 539 620 33,000  Level FlightAware ADS-B
Wed 12:22:47 AM 25.1770 -79.2670 115° Southeast 537 618 33,000  Level FlightAware ADS-B
Wed 12:23:57 AM 25.1040 -79.0950 115° Southeast 535 616 33,000  Level FlightAware ADS-B
Wed 12:25:07 AM 25.0310 -78.9220 115° Southeast 532 612 33,000  Level FlightAware ADS-B
Wed 12:26:22 AM 24.9520 -78.7380 115° Southeast 531 611 33,000  Level FlightAware ADS-B
Wed 12:28:22 AM 24.8350 -78.4650 115° Southeast 528 608 33,000  Level FlightAware ADS-B
Wed 12:29:12 AM 24.7910 -78.3620 115° Southeast 528 608 33,000  Level FlightAware ADS-B
Wed 12:29:52 AM 24.7560 -78.2790 115° Southeast 528 608 33,000  Level FlightAware ADS-B
Wed 12:30:32 AM 24.7210 -78.1960 115° Southeast 528 608 33,000  Level FlightAware ADS-B
Wed 12:31:12 AM 24.6860 -78.1130 115° Southeast 528 608 33,000  Level FlightAware ADS-B
Wed 12:32:02 AM 24.6420 -78.0090 115° Southeast 528 608 33,000  Level FlightAware ADS-B
Wed 12:32:42 AM 24.6070 -77.9270 115° Southeast 528 608 33,000  Level FlightAware ADS-B
Wed 12:33:22 AM 24.5720 -77.8440 115° Southeast 528 608 33,000  Level FlightAware ADS-B
Wed 12:34:02 AM 24.5370 -77.7610 115° Southeast 528 608 33,000  Level FlightAware ADS-B
Wed 12:34:42 AM 24.5020 -77.6780 115° Southeast 528 608 33,000  Level FlightAware ADS-B
Wed 12:35:32 AM 24.4580 -77.5750 115° Southeast 528 608 33,000  Level FlightAware ADS-B
Wed 12:36:12 AM 24.4230 -77.4920 115° Southeast 528 608 33,000  Level FlightAware ADS-B
Wed 12:36:52 AM 24.3870 -77.4100 116° Southeast 528 608 33,000  Level FlightAware ADS-B
Wed 12:37:32 AM 24.3520 -77.3270 115° Southeast 528 608 33,000  Level FlightAware ADS-B
Wed 12:38:15 AM 24.2097 -76.9933 115° Southeast 526 605 33,000  Level Miami Center
Wed 12:39:15 AM 24.1469 -76.8519 116° Southeast 521 600 33,000  Level Miami Center
Wed 12:40:15 AM 24.0822 -76.7086 116° Southeast 516 594 33,000  Level Miami Center
Wed 12:41:17 AM 24.0192 -76.5631 115° Southeast 516 594 33,000  Level Miami Center
Wed 12:42:16 AM 23.9542 -76.4222 117° Southeast 516 594 33,000  Level Miami Center
Wed 12:43:18 AM 23.8889 -76.2769 116° Southeast 521 600 33,000  Level Miami Center
Wed 12:44:17 AM 23.8256 -76.1342 116° Southeast 521 600 33,000  Level Miami Center
Wed 12:45:18 AM 23.7619 -75.9939 116° Southeast 516 594 33,000  Level Miami Center
Wed 12:46:17 AM 23.6986 -75.8514 116° Southeast 516 594 33,000  Level Miami Center
Wed 12:47:15 AM 23.6347 -75.7067 116° Southeast 521 600 33,000  Level Miami Center
Wed 12:48:15 AM 23.5794 -75.5917 118° Southeast 526 605 33,000  Level Miami Center
Wed 12:49:15 AM 23.5069 -75.4358 117° Southeast 526 605 33,000  Level Miami Center
Wed 12:50:15 AM 23.4431 -75.2986 117° Southeast 526 605 33,000  Level Miami Center
Wed 12:51:17 AM 23.3767 -75.1544 117° Southeast 526 605 33,000  Level Miami Center
Wed 12:52:16 AM 23.3103 -75.0153 117° Southeast 521 600 33,000  Level Miami Center
Wed 12:53:15 AM 23.2458 -74.8758 117° Southeast 521 600 33,000  Level Miami Center
Wed 12:54:16 AM 23.1789 -74.7344 117° Southeast 521 600 33,000  Level Miami Center
Wed 12:55:15 AM 23.1122 -74.5933 117° Southeast 516 594 33,000  Level Miami Center
Wed 12:56:17 AM 23.0472 -74.4522 117° Southeast 516 594 33,000  Level Miami Center
Wed 12:57:16 AM 22.9781 -74.3114 118° Southeast 516 594 33,000  Level Miami Center
Wed 12:58:17 AM 22.9153 -74.1728 116° Southeast 516 594 33,000  Level Miami Center
Wed 12:59:16 AM 22.8478 -74.0322 118° Southeast 516 594 33,000  Level Miami Center
Wed 01:00:16 AM 22.7825 -73.8964 118° Southeast 511 588 33,000  Level Miami Center
Wed 01:01:18 AM 22.7150 -73.7583 118° Southeast 517 595 33,000  Level Miami Center
Wed 01:02:15 AM 22.6475 -73.6206 118° Southeast 517 595 33,000  Level Miami Center
Wed 01:03:15 AM 22.5858 -73.4803 115° Southeast 512 589 33,000  Level Miami Center
Wed 01:04:15 AM 22.5158 -73.3428 119° Southeast 512 589 33,000  Level Miami Center
Wed 01:05:15 AM 22.4497 -73.1894 115° Southeast 507 583 33,000  Level Miami Center
Wed 01:06:17 AM 22.3836 -73.0500 117° Southeast 507 583 33,000  Level Miami Center
Wed 01:07:17 AM 22.3219 -72.9283 119° Southeast 507 583 33,000  Level Miami Center
Wed 01:08:17 AM 22.2556 -72.7889 117° Southeast 512 589 33,000  Level Miami Center
Wed 01:09:17 AM 22.1872 -72.6500 118° Southeast 517 595 33,000  Level Miami Center
Wed 01:10:16 AM 22.1186 -72.5133 118° Southeast 517 595 33,000  Level Miami Center
Wed 01:11:17 AM 22.0519 -72.3744 117° Southeast 517 595 33,000  Level Miami Center
Wed 01:12:18 AM 21.9853 -72.2356 117° Southeast 517 595 33,000  Level Miami Center
Wed 01:13:16 AM 21.9161 -72.0972 118° Southeast 517 595 33,000  Level Miami Center
Wed 01:14:18 AM 21.8472 -71.9611 119° Southeast 517 595 33,000  Level Miami Center
Wed 01:15:17 AM 21.7800 -71.8206 117° Southeast 512 589 33,000  Level Miami Center
Wed 01:16:16 AM 21.7108 -71.6825 118° Southeast 512 589 33,000  Level Miami Center
Wed 01:17:17 AM 21.6433 -71.5467 118° Southeast 512 589 33,000  Level Miami Center
Wed 01:18:18 AM 21.5761 -71.4089 118° Southeast 512 589 33,000  Level Miami Center
Wed 01:19:18 AM 21.5086 -71.2733 118° Southeast 512 589 33,000  Level Miami Center
Wed 01:20:16 AM 21.4342 -71.1250 118° Southeast 512 589 33,000  Level Miami Center
Wed 01:21:17 AM 21.3572 -71.0194 128° Southeast 512 589 33,000  Level Miami Center
Wed 01:22:18 AM 21.2492 -70.8683 127° Southeast 491 565 33,000  Level Miami Center
Wed 01:23:18 AM 21.1631 -70.7433 126° Southeast 515 593 33,000  Level Miami Center
Wed 01:24:18 AM 21.0747 -70.6228 128° Southeast 520 598 33,000  Level Miami Center
Wed 01:25:15 AM 20.9886 -70.5003 127° Southeast 520 598 33,000  Level Miami Center
Wed 01:26:16 AM 20.9000 -70.3781 128° Southeast 520 598 33,000  Level Miami Center
Wed 01:27:17 AM 20.8117 -70.2558 128° Southeast 520 598 33,000  Level Miami Center
Wed 01:28:17 AM 20.7228 -70.1317 127° Southeast 520 598 33,000  Level Miami Center
Wed 01:29:16 AM 20.6361 -70.0075 127° Southeast 520 598 33,000  Level Miami Center
Wed 01:30:15 AM 20.5453 -69.8861 129° Southeast 525 604 33,000  Level Miami Center
Wed 01:31:17 AM 20.4583 -69.7622 127° Southeast 525 604 33,000  Level Miami Center
Wed 01:32:15 AM 20.3694 -69.6408 128° Southeast 525 604 33,000  Level Miami Center
Wed 01:33:17 AM 20.2786 -69.5200 129° Southeast 525 604 33,000  Level Miami Center
Wed 01:34:15 AM 20.1875 -69.4011 129° Southeast 525 604 33,000  Level Miami Center
Wed 01:35:17 AM 20.1003 -69.2781 127° Southeast 525 604 33,000  Level Miami Center
Wed 01:36:17 AM 20.0069 -69.1575 129° Southeast 525 604 33,000  Level Miami Center
Wed 01:37:17 AM 19.9178 -69.0350 128° Southeast 525 604 33,000  Level Miami Center
Wed 01:38:15 AM 19.8283 -68.9125 128° Southeast 525 604 33,000  Level Miami Center
Wed 01:39:15 AM 19.7369 -68.7922 129° Southeast 525 604 33,000  Level Miami Center
Wed 01:40:15 AM 19.6614 -68.6628 122° Southeast 525 604 33,000  Level Miami Center
Wed 01:41:18 AM 19.5667 -68.5500 132° Southeast 520 598 33,000  Level San Juan Center
Wed 01:42:19 AM 19.4833 -68.4333 127° Southeast 520 598 33,000  Level San Juan Center
Wed 01:48:32 AM 18.9140 -67.6940 127° Southeast 512 589 33,000  Level FlightAware ADS-B
Wed 01:49:12 AM 18.8570 -67.6180 128° Southeast 510 587 33,000  Level FlightAware ADS-B
Wed 01:49:47 AM 18.8120 -67.5560 127° Southeast 510 587 33,000  Level FlightAware ADS-B
Wed 01:50:37 AM 18.7500 -67.4720 128° Southeast 510 587 33,000  Level FlightAware ADS-B
Wed 01:51:17 AM 18.7010 -67.4060 128° Southeast 510 587 33,000  Level FlightAware ADS-B
Wed 01:51:57 AM 18.6510 -67.3390 128° Southeast 510 587 33,000  Level FlightAware ADS-B
Wed 01:52:37 AM 18.6020 -67.2720 128° Southeast 510 587 33,000  Level FlightAware ADS-B
Wed 01:53:22 AM 18.4880 -67.1300 130° Southeast 502 578 33,000  Level FlightAware ADS-B
Wed 01:54:07 AM 18.4080 -67.0560 139° Southeast 498 573 33,000  Level FlightAware ADS-B
Wed 01:54:52 AM 18.3290 -66.9870 140° Southeast 499 574 33,000  Level FlightAware ADS-B
Wed 01:55:27 AM 18.2650 -66.9310 140° Southeast 500 575 33,000  Level FlightAware ADS-B
Wed 01:56:12 AM 18.1870 -66.8630 140° Southeast 502 578 33,000  Level FlightAware ADS-B
Wed 01:56:57 AM 18.1040 -66.7910 140° Southeast 503 579 33,000  Level FlightAware ADS-B
Wed 01:57:37 AM 18.0330 -66.7290 140° Southeast 503 579 33,000  Level FlightAware ADS-B
Wed 01:58:22 AM 17.9530 -66.6600 141° Southeast 504 580 33,000  Level FlightAware ADS-B
Wed 01:59:02 AM 17.8820 -66.5980 140° Southeast 504 580 33,000  Level FlightAware ADS-B
Wed 01:59:37 AM 17.8200 -66.5440 140° Southeast 505 581 33,000  Level FlightAware ADS-B
Wed 02:00:27 AM 17.7260 -66.4620 140° Southeast 506 582 33,000  Level FlightAware ADS-B
Wed 02:01:07 AM 17.6550 -66.4010 141° Southeast 506 582 33,000  Level FlightAware ADS-B
Wed 02:01:52 AM 17.5790 -66.3350 140° Southeast 507 583 33,000  Level FlightAware ADS-B
Wed 02:02:32 AM 17.5180 -66.2810 140° Southeast 507 583 33,000  Level FlightAware ADS-B
Wed 02:03:12 AM 17.4570 -66.2280 140° Southeast 507 583 33,000  Level FlightAware ADS-B
Wed 02:03:52 AM 17.3960 -66.1740 140° Southeast 507 583 33,000  Level FlightAware ADS-B
Wed 02:04:32 AM 17.3350 -66.1200 140° Southeast 507 583 33,000  Level FlightAware ADS-B
Wed 02:05:12 AM 17.2740 -66.0660 140° Southeast 507 583 33,000  Level FlightAware ADS-B
Wed 02:06:02 AM 17.1980 -65.9990 140° Southeast 507 583 33,000  Level FlightAware ADS-B
Wed 02:06:42 AM 17.1360 -65.9460 141° Southeast 507 583 33,000  Level FlightAware ADS-B
Wed 02:07:22 AM 17.0750 -65.8920 140° Southeast 507 583 33,000  Level FlightAware ADS-B
Wed 02:08:02 AM 17.0140 -65.8380 140° Southeast 507 583 33,000  Level FlightAware ADS-B
Wed 02:08:42 AM 16.9530 -65.7850 140° Southeast 507 583 33,000  Level FlightAware ADS-B
Wed 02:09:32 AM 16.8770 -65.7180 140° Southeast 507 583 33,000  Level FlightAware ADS-B
Wed 02:10:12 AM 16.8160 -65.6640 140° Southeast 507 583 33,000  Level FlightAware ADS-B
Wed 02:10:52 AM 16.7550 -65.6110 140° Southeast 507 583 33,000  Level FlightAware ADS-B
Wed 02:11:28 AM 16.5333 -65.4167 140° Southeast 500 575 33,000  Level San Juan Center
Wed 02:12:28 AM 16.4333 -65.3333 141° Southeast 500 575 33,000  Level San Juan Center
Wed 02:13:28 AM 16.3167 -65.2333 141° Southeast 500 575 33,000  Level San Juan Center
Wed 02:14:28 AM 16.2167 -65.1500 141° Southeast 500 575 33,000  Level San Juan Center
Wed 02:15:28 AM 16.0833 -65.0667 149° Southeast 490 564 33,000  Level San Juan Center
Wed 02:16:29 AM 15.9833 -64.9833 141° Southeast 490 564 33,000  Level San Juan Center
Wed 02:17:29 AM 15.8833 -64.8833 136° Southeast 500 575 33,000  Level San Juan Center
Wed 02:18:29 AM 15.7833 -64.8000 141° Southeast 500 575 33,000  Level San Juan Center
Wed 02:19:30 AM 15.6833 -64.7000 136° Southeast 500 575 33,000  Level San Juan Center
Wed 02:20:30 AM 15.5667 -64.6000 140° Southeast 490 564 33,000  Level San Juan Center
Wed 02:21:30 AM 15.4667 -64.5167 141° Southeast 490 564 33,000  Level San Juan Center
Wed 02:26:52 AM 14.8850 -64.0880 141° Southeast 487 560 33,000  Level FlightAware ADS-B
Wed 02:27:42 AM 14.7920 -64.0250 147° Southeast 487 560 33,000  Level FlightAware ADS-B
Wed 02:28:57 AM 14.6520 -63.9320 147° Southeast 487 560 33,000  Level FlightAware ADS-B
Wed 02:31:00 AM 14.4204 -63.7863 149° Southeast  Level FlightAware Approximate
Wed 02:32:00 AM 14.3074 -63.7153 149° Southeast  Level FlightAware Approximate
Wed 02:32:07 AM 14.2890 -63.6900 149° Southeast 489 563 33,000  Level FlightAware ADS-B
Wed 02:34:00 AM 14.0688 -63.5692 150° Southeast  Level FlightAware Approximate
Wed 02:35:00 AM 13.9537 -63.5020 150° Southeast  Level FlightAware Approximate
Wed 02:36:00 AM 13.8386 -63.4349 150° Southeast  Level FlightAware Approximate
Wed 02:37:00 AM 13.7234 -63.3679 151° Southeast  Level FlightAware Approximate
Wed 02:38:00 AM 13.6082 -63.3009 151° Southeast  Level FlightAware Approximate
Wed 02:39:00 AM 13.4930 -63.2340 151° Southeast  Level FlightAware Approximate
Wed 02:39:22 AM 13.4600 -63.1420 151° Southeast 488 562 33,000  Level FlightAware ADS-B
Wed 02:41:00 AM 13.2505 -63.0878 166° South  Level FlightAware Approximate
Wed 02:42:00 AM 13.1342 -63.0229 148° Southeast  Level Estimated
Wed 02:43:00 AM 13.0216 -62.9516 148° Southeast  Level FlightAware Approximate
Wed 02:44:00 AM 12.9090 -62.8805 148° Southeast  Level FlightAware Approximate
Wed 02:44:17 AM 12.8920 -62.7690 148° Southeast 489 563 33,000  Level FlightAware ADS-B
Wed 02:44:57 AM 12.8180 -62.7210 148° Southeast 489 563 33,000  Level FlightAware ADS-B
Wed 02:45:37 AM 12.7390 -62.6690 147° Southeast 489 563 33,000  Level FlightAware ADS-B
Wed 02:46:02 AM 12.8240 -62.7250 327° Northwest 33,000  Level FlightAware ADS-B
Wed 02:46:22 AM 12.6580 -62.6160 147° Southeast 489 563 33,000  Level FlightAware ADS-B
Wed 02:47:02 AM 12.5760 -62.5630 148° Southeast 489 563 33,000  Level FlightAware ADS-B
Wed 02:47:37 AM 12.5090 -62.5190 147° Southeast 489 563 33,000  Level FlightAware ADS-B
Wed 02:48:27 AM 12.5090 -62.5190 147° Southeast 487 560 33,000  Level FlightAware ADS-B
Wed 02:49:07 AM 12.3360 -62.4060 147° Southeast 486 559 33,000  Level FlightAware ADS-B
Wed 02:49:52 AM 12.2540 -62.3520 147° Southeast 483 556 33,000  Level FlightAware ADS-B
Wed 02:50:32 AM 12.1830 -62.3060 148° Southeast 483 556 33,000  Level FlightAware ADS-B
Wed 02:51:42 AM 12.0530 -62.2210 147° Southeast 474 545 33,000  Level FlightAware ADS-B
Wed 02:52:17 AM 11.9950 -62.1830 147° Southeast 474 545 33,000  Level FlightAware ADS-B
Wed 02:53:07 AM 11.9170 -62.1310 147° Southeast 474 545 33,000  Level FlightAware ADS-B
Wed 02:53:47 AM 11.8540 -62.0890 147° Southeast 474 545 33,000  Level FlightAware ADS-B
Wed 02:54:27 AM 11.7920 -62.0480 147° Southeast 474 545 33,000  Level FlightAware ADS-B
Wed 02:55:17 AM 11.7130 -61.9960 147° Southeast 474 545 33,000  Level FlightAware ADS-B
Wed 02:55:57 AM 11.6510 -61.9550 147° Southeast 474 545 33,000  Level FlightAware ADS-B
Wed 02:56:37 AM 11.5880 -61.9130 147° Southeast 474 545 33,000  Level FlightAware ADS-B
Wed 02:57:17 AM 11.5260 -61.8720 147° Southeast 474 545 33,000  Level FlightAware ADS-B
Wed 02:57:57 AM 11.4630 -61.8300 147° Southeast 474 545 33,000  Level FlightAware ADS-B
Wed 02:58:47 AM 11.3850 -61.7780 147° Southeast 474 545 33,000  Level FlightAware ADS-B
Wed 02:59:27 AM 11.3230 -61.7370 147° Southeast 474 545 33,000  Level FlightAware ADS-B
Wed 03:00:07 AM 11.2600 -61.6960 147° Southeast 474 545 33,000  Level FlightAware ADS-B
Wed 03:00:47 AM 11.1980 -61.6540 146° Southeast 474 545 33,000  Level FlightAware ADS-B
Wed 03:01:27 AM 11.1350 -61.6130 147° Southeast 474 545 33,000 22 Level FlightAware ADS-B
Wed 03:04:00 AM 10.8368 -61.4524 152° Southeast  Level Estimated
Wed 03:05:00 AM 10.7198 -61.3895 152° Southeast  Level Estimated
Wed 03:06:00 AM 10.6028 -61.3267 152° Southeast  Level Estimated
Wed 03:07:00 AM 10.4858 -61.2639 152° Southeast  Level Estimated
Wed 03:08:00 AM 10.3687 -61.2012 152° Southeast  Level Estimated
Wed 03:09:00 AM 10.2517 -61.1385 152° Southeast  Level Estimated
Wed 03:10:00 AM 10.1347 -61.0759 152° Southeast  Level Estimated
Wed 03:11:00 AM 10.0176 -61.0133 152° Southeast  Level Estimated
Wed 03:12:00 AM 9.9005 -60.9507 152° Southeast  Level Estimated
Wed 03:13:00 AM 9.7835 -60.8882 152° Southeast  Level Estimated
Wed 03:14:00 AM 9.6664 -60.8257 152° Southeast  Level Estimated
Wed 03:15:00 AM 9.5493 -60.7633 152° Southeast  Level Estimated
Wed 03:16:00 AM 9.4322 -60.7010 152° Southeast  Level Estimated
Wed 03:17:00 AM 9.3151 -60.6386 152° Southeast  Level Estimated
Wed 03:18:00 AM 9.1979 -60.5763 152° Southeast  Level Estimated
Wed 03:19:00 AM 9.0808 -60.5141 152° Southeast  Level Estimated
Wed 03:20:00 AM 8.9636 -60.4519 152° Southeast  Level Estimated
Wed 03:21:00 AM 8.8464 -60.3897 152° Southeast  Level Estimated
Wed 03:22:00 AM 8.7293 -60.3276 152° Southeast  Level Estimated
Wed 03:23:00 AM 8.6121 -60.2655 152° Southeast  Level Estimated
Wed 03:24:00 AM 8.4949 -60.2034 152° Southeast  Level Estimated
Wed 03:25:00 AM 8.3777 -60.1414 152° Southeast  Level Estimated
Wed 03:26:00 AM 8.2604 -60.0794 152° Southeast  Level Estimated
Wed 03:27:00 AM 8.1432 -60.0175 152° Southeast  Level Estimated
Wed 03:28:00 AM 8.0260 -59.9556 152° Southeast  Level Estimated
Wed 03:29:00 AM 7.9087 -59.8937 152° Southeast  Level Estimated
Wed 03:30:00 AM 7.7915 -59.8319 152° Southeast  Level Estimated
Wed 03:31:00 AM 7.6742 -59.7701 152° Southeast  Level Estimated
Wed 03:32:00 AM 7.5570 -59.7083 152° Southeast  Level Estimated
Wed 03:33:00 AM 7.4397 -59.6466 152° Southeast  Level Estimated
Wed 03:34:00 AM 7.3224 -59.5849 152° Southeast  Level Estimated
Wed 03:35:00 AM 7.2051 -59.5232 152° Southeast  Level Estimated
Wed 03:36:00 AM 7.0878 -59.4616 152° Southeast  Level Estimated
Wed 03:37:00 AM 6.9705 -59.4000 152° Southeast  Level Estimated
Wed 03:38:00 AM 6.8532 -59.3384 152° Southeast  Level Estimated
Wed 03:39:00 AM 6.7358 -59.2769 152° Southeast  Level Estimated
Wed 03:40:00 AM 6.6185 -59.2154 152° Southeast  Level Estimated
Wed 03:41:00 AM 6.5012 -59.1539 152° Southeast  Level Estimated
Wed 03:42:00 AM 6.3838 -59.0925 153° Southeast  Level Estimated
Wed 03:43:00 AM 6.2664 -59.0310 153° Southeast  Level Estimated
Wed 03:44:00 AM 6.1491 -58.9696 153° Southeast  Level Estimated
Wed 03:45:00 AM 6.0317 -58.9083 153° Southeast  Level Estimated
Wed 03:46:00 AM 5.9143 -58.8469 153° Southeast  Level Estimated
Wed 03:47:00 AM 5.7969 -58.7856 153° Southeast  Level Estimated
Wed 03:48:00 AM 5.6795 -58.7243 153° Southeast  Level Estimated
Wed 03:49:00 AM 5.5621 -58.6630 153° Southeast  Level Estimated
Wed 03:50:00 AM 5.4447 -58.6018 153° Southeast  Level Estimated
Wed 03:51:00 AM 5.3273 -58.5406 153° Southeast  Level Estimated
Wed 03:52:00 AM 5.2099 -58.4794 153° Southeast  Level Estimated
Wed 03:53:00 AM 5.0925 -58.4182 153° Southeast  Level Estimated
Wed 03:54:00 AM 4.9750 -58.3571 153° Southeast  Level Estimated
Wed 03:55:00 AM 4.8576 -58.2959 153° Southeast  Level Estimated
Wed 03:56:00 AM 4.7402 -58.2348 153° Southeast  Level Estimated
Wed 03:57:00 AM 4.6227 -58.1737 153° Southeast  Level Estimated
Wed 03:58:00 AM 4.5053 -58.1127 153° Southeast  Level Estimated
Wed 03:59:00 AM 4.3878 -58.0516 153° Southeast  Level Estimated
Wed 04:00:00 AM 4.2703 -57.9906 153° Southeast  Level Estimated
Wed 04:01:00 AM 4.1529 -57.9296 153° Southeast  Level Estimated
Wed 04:02:00 AM 4.0354 -57.8686 153° Southeast  Level Estimated
Wed 04:03:00 AM 3.9179 -57.8076 153° Southeast  Level Estimated
Wed 04:04:00 AM 3.8005 -57.7467 153° Southeast  Level Estimated
Wed 04:05:00 AM 3.6830 -57.6857 153° Southeast  Level Estimated
Wed 04:06:00 AM 3.5655 -57.6248 153° Southeast  Level Estimated
Wed 04:07:00 AM 3.4480 -57.5639 153° Southeast  Level Estimated
Wed 04:08:00 AM 3.3305 -57.5030 153° Southeast  Level Estimated
Wed 04:09:00 AM 3.2130 -57.4421 153° Southeast  Level Estimated
Wed 04:10:00 AM 3.0955 -57.3812 153° Southeast  Level Estimated
Wed 04:11:00 AM 2.9780 -57.3204 153° Southeast  Level Estimated
Wed 04:12:00 AM 2.8605 -57.2596 153° Southeast  Level Estimated
Wed 04:13:00 AM 2.7430 -57.1987 153° Southeast  Level Estimated
Wed 04:14:00 AM 2.6254 -57.1379 153° Southeast  Level Estimated
Wed 04:15:00 AM 2.5079 -57.0771 153° Southeast  Level Estimated
Wed 04:16:00 AM 2.3904 -57.0163 153° Southeast  Level Estimated
Wed 04:17:00 AM 2.2729 -56.9556 153° Southeast  Level Estimated
Wed 04:18:00 AM 2.1553 -56.8948 153° Southeast  Level Estimated
Wed 04:19:00 AM 2.0378 -56.8340 153° Southeast  Level Estimated
Wed 04:20:00 AM 1.9203 -56.7733 153° Southeast  Level Estimated
Wed 04:21:00 AM 1.8027 -56.7125 153° Southeast  Level Estimated
Wed 04:22:00 AM 1.6852 -56.6518 153° Southeast  Level Estimated
Wed 04:23:00 AM 1.5677 -56.5911 153° Southeast  Level Estimated
Wed 04:24:00 AM 1.4501 -56.5303 153° Southeast  Level Estimated
Wed 04:25:00 AM 1.3326 -56.4696 153° Southeast  Level Estimated
Wed 04:26:00 AM 1.2150 -56.4089 153° Southeast  Level Estimated
Wed 04:27:00 AM 1.0975 -56.3482 153° Southeast  Level Estimated
Wed 04:28:00 AM 0.9800 -56.2875 153° Southeast  Level Estimated
Wed 04:29:00 AM 0.8624 -56.2268 153° Southeast  Level Estimated
Wed 04:30:00 AM 0.7449 -56.1661 153° Southeast  Level Estimated
Wed 04:31:00 AM 0.6273 -56.1054 153° Southeast  Level Estimated
Wed 04:32:00 AM 0.5098 -56.0447 153° Southeast  Level Estimated
Wed 04:33:00 AM 0.3922 -55.9841 153° Southeast  Level Estimated
Wed 04:34:00 AM 0.2747 -55.9234 153° Southeast  Level Estimated
Wed 04:35:00 AM 0.1571 -55.8627 153° Southeast  Level Estimated
Wed 04:36:00 AM 0.0396 -55.8020 153° Southeast  Level Estimated
Wed 04:37:00 AM -0.0780 -55.7413 153° Southeast  Level Estimated
Wed 04:38:00 AM -0.1955 -55.6806 153° Southeast  Level Estimated
Wed 04:39:00 AM -0.3131 -55.6200 153° Southeast  Level Estimated
Wed 04:40:00 AM -0.4306 -55.5593 153° Southeast  Level Estimated
Wed 04:41:00 AM -0.5482 -55.4986 153° Southeast  Level Estimated
Wed 04:42:00 AM -0.6657 -55.4379 153° Southeast  Level Estimated
Wed 04:43:00 AM -0.7833 -55.3772 153° Southeast  Level Estimated
Wed 04:44:00 AM -0.9008 -55.3165 153° Southeast  Level Estimated
Wed 04:45:00 AM -1.0184 -55.2558 153° Southeast  Level Estimated
Wed 04:46:00 AM -1.1359 -55.1951 153° Southeast  Level Estimated
Wed 04:47:00 AM -1.2535 -55.1344 153° Southeast  Level Estimated
Wed 04:48:00 AM -1.3710 -55.0737 153° Southeast  Level Estimated
Wed 04:49:00 AM -1.4886 -55.0130 153° Southeast  Level Estimated
Wed 04:50:00 AM -1.6061 -54.9523 153° Southeast  Level Estimated
Wed 04:51:00 AM -1.7236 -54.8915 153° Southeast  Level Estimated
Wed 04:52:00 AM -1.8412 -54.8308 153° Southeast  Level Estimated
Wed 04:53:00 AM -1.9587 -54.7701 153° Southeast  Level Estimated
Wed 04:54:00 AM -2.0762 -54.7093 153° Southeast  Level Estimated
Wed 04:55:00 AM -2.1938 -54.6485 153° Southeast  Level Estimated
Wed 04:56:00 AM -2.3113 -54.5878 153° Southeast  Level Estimated
Wed 04:57:00 AM -2.4288 -54.5270 153° Southeast  Level Estimated
Wed 04:58:00 AM -2.5463 -54.4662 153° Southeast  Level Estimated
Wed 04:59:00 AM -2.6639 -54.4054 153° Southeast  Level Estimated
Wed 05:00:00 AM -2.7814 -54.3446 153° Southeast  Level Estimated
Wed 05:01:00 AM -2.8989 -54.2837 153° Southeast  Level Estimated
Wed 05:02:00 AM -3.0164 -54.2229 153° Southeast  Level Estimated
Wed 05:03:00 AM -3.1339 -54.1620 153° Southeast  Level Estimated
Wed 05:04:00 AM -3.2514 -54.1012 153° Southeast  Level Estimated
Wed 05:05:00 AM -3.3689 -54.0403 153° Southeast  Level Estimated
Wed 05:06:00 AM -3.4864 -53.9794 153° Southeast  Level Estimated
Wed 05:07:00 AM -3.6039 -53.9185 153° Southeast  Level Estimated
Wed 05:08:00 AM -3.7214 -53.8576 153° Southeast  Level Estimated
Wed 05:09:00 AM -3.8389 -53.7966 153° Southeast  Level Estimated
Wed 05:10:00 AM -3.9563 -53.7356 153° Southeast  Level Estimated
Wed 05:11:00 AM -4.0738 -53.6747 153° Southeast  Level Estimated
Wed 05:12:00 AM -4.1913 -53.6137 153° Southeast  Level Estimated
Wed 05:13:00 AM -4.3087 -53.5526 153° Southeast  Level Estimated
Wed 05:14:00 AM -4.4262 -53.4916 153° Southeast  Level Estimated
Wed 05:15:00 AM -4.5437 -53.4306 153° Southeast  Level Estimated
Wed 05:16:00 AM -4.6611 -53.3695 153° Southeast  Level Estimated
Wed 05:17:00 AM -4.7785 -53.3084 153° Southeast  Level Estimated
Wed 05:18:00 AM -4.8960 -53.2473 153° Southeast  Level Estimated
Wed 05:19:00 AM -5.0134 -53.1861 153° Southeast  Level Estimated
Wed 05:20:00 AM -5.1308 -53.1250 153° Southeast  Level Estimated
Wed 05:21:00 AM -5.2483 -53.0638 153° Southeast  Level Estimated
Wed 05:22:00 AM -5.3657 -53.0026 153° Southeast  Level Estimated
Wed 05:23:00 AM -5.4831 -52.9414 153° Southeast  Level Estimated
Wed 05:24:00 AM -5.6005 -52.8801 153° Southeast  Level Estimated
Wed 05:25:00 AM -5.7179 -52.8189 153° Southeast  Level Estimated
Wed 05:26:00 AM -5.8353 -52.7575 153° Southeast  Level Estimated
Wed 05:27:00 AM -5.9527 -52.6962 153° Southeast  Level Estimated
Wed 05:28:00 AM -6.0700 -52.6349 153° Southeast  Level Estimated
Wed 05:29:00 AM -6.1874 -52.5735 153° Southeast  Level Estimated
Wed 05:30:00 AM -6.3048 -52.5121 153° Southeast  Level Estimated
Wed 05:31:00 AM -6.4221 -52.4506 153° Southeast  Level Estimated
Wed 05:32:00 AM -6.5395 -52.3892 153° Southeast  Level Estimated
Wed 05:33:00 AM -6.6568 -52.3277 153° Southeast  Level Estimated
Wed 05:34:00 AM -6.7741 -52.2662 152° Southeast  Level Estimated
Wed 05:35:00 AM -6.8915 -52.2046 152° Southeast  Level Estimated
Wed 05:36:00 AM -7.0088 -52.1430 152° Southeast  Level Estimated
Wed 05:37:00 AM -7.1261 -52.0814 152° Southeast  Level Estimated
Wed 05:38:00 AM -7.2434 -52.0198 152° Southeast  Level Estimated
Wed 05:39:00 AM -7.3607 -51.9581 152° Southeast  Level Estimated
Wed 05:40:00 AM -7.4780 -51.8964 152° Southeast  Level Estimated
Wed 05:41:00 AM -7.5953 -51.8347 152° Southeast  Level Estimated
Wed 05:42:00 AM -7.7125 -51.7729 152° Southeast  Level Estimated
Wed 05:43:00 AM -7.8298 -51.7111 152° Southeast  Level Estimated
Wed 05:44:00 AM -7.9471 -51.6492 152° Southeast  Level Estimated
Wed 05:45:00 AM -8.0643 -51.5873 152° Southeast  Level Estimated
Wed 05:46:00 AM -8.1815 -51.5254 152° Southeast  Level Estimated
Wed 05:47:00 AM -8.2987 -51.4635 152° Southeast  Level Estimated
Wed 05:48:00 AM -8.4159 -51.4015 152° Southeast  Level Estimated
Wed 05:49:00 AM -8.5331 -51.3395 152° Southeast  Level Estimated
Wed 05:50:00 AM -8.6503 -51.2774 152° Southeast  Level Estimated
Wed 05:51:00 AM -8.7675 -51.2153 152° Southeast  Level Estimated
Wed 05:52:00 AM -8.8847 -51.1531 152° Southeast  Level Estimated
Wed 05:53:00 AM -9.0019 -51.0910 152° Southeast  Level Estimated
Wed 05:54:00 AM -9.1190 -51.0287 152° Southeast  Level Estimated
Wed 05:55:00 AM -9.2361 -50.9665 152° Southeast  Level Estimated
Wed 05:56:00 AM -9.3533 -50.9042 152° Southeast  Level Estimated
Wed 05:57:00 AM -9.4704 -50.8418 152° Southeast  Level Estimated
Wed 05:58:00 AM -9.5875 -50.7794 152° Southeast  Level Estimated
Wed 05:59:00 AM -9.7046 -50.7170 152° Southeast  Level Estimated
Wed 06:00:00 AM -9.8217 -50.6545 152° Southeast  Level Estimated
Wed 06:01:00 AM -9.9388 -50.5920 152° Southeast  Level Estimated
Wed 06:02:00 AM -10.0558 -50.5294 152° Southeast  Level Estimated
Wed 06:03:00 AM -10.1729 -50.4668 152° Southeast  Level Estimated
Wed 06:03:27 AM -10.2190 -50.9780 152° Southeast 485 558 37,000  Level FlightAware ADS-B
Wed 06:04:00 AM -10.2899 -50.4042 152° Southeast  Level Estimated
Wed 06:04:17 AM -10.3040 -50.9340 153° Southeast 485 558 37,000  Level FlightAware ADS-B
Wed 06:04:57 AM -10.3720 -50.8990 153° Southeast 485 558 37,000  Level FlightAware ADS-B
Wed 06:05:37 AM -10.4400 -50.8640 153° Southeast 485 558 37,000  Level FlightAware ADS-B
Wed 06:06:17 AM -10.5080 -50.8290 153° Southeast 485 558 37,000  Level FlightAware ADS-B
Wed 06:06:57 AM -10.5760 -50.7930 153° Southeast 485 558 37,000  Level FlightAware ADS-B
Wed 06:08:02 AM -10.7830 -50.6900 154° Southeast 487 560 37,000  Level FlightAware ADS-B
Wed 06:08:42 AM -10.8620 -50.6500 154° Southeast 488 562 37,000  Level FlightAware ADS-B
Wed 06:10:07 AM -11.0280 -50.5650 153° Southeast 488 562 37,000  Level FlightAware ADS-B
Wed 06:10:52 AM -11.1200 -50.5180 153° Southeast 490 564 37,000  Level FlightAware ADS-B
Wed 06:11:32 AM -11.2010 -50.4760 153° Southeast 491 565 37,000  Level FlightAware ADS-B
Wed 06:12:22 AM -11.2960 -50.4270 153° Southeast 491 565 37,000  Level FlightAware ADS-B
Wed 06:13:02 AM -11.3900 -50.3790 153° Southeast 492 566 37,000  Level FlightAware ADS-B
Wed 06:14:02 AM -11.5150 -50.3140 153° Southeast 492 566 37,000  Level FlightAware ADS-B
Wed 06:14:47 AM -11.5950 -50.2730 153° Southeast 492 566 37,000  Level FlightAware ADS-B
Wed 06:15:27 AM -11.5760 -50.2830 333° Northwest 494 568 37,000  Level FlightAware ADS-B
Wed 06:16:12 AM -11.7670 -50.1840 153° Southeast 494 568 37,000  Level FlightAware ADS-B
Wed 06:16:52 AM -11.8620 -50.1350 153° Southeast 496 571 37,000  Level FlightAware ADS-B
Wed 06:17:32 AM -11.9360 -50.0970 153° Southeast 496 571 37,000  Level FlightAware ADS-B
Wed 06:18:17 AM -12.0350 -50.0460 153° Southeast 496 571 37,000  Level FlightAware ADS-B
Wed 06:19:12 AM -12.1480 -49.9870 153° Southeast 496 571 37,000  Level FlightAware ADS-B
Wed 06:20:12 AM -12.1440 -49.9890 334° Northwest 497 572 37,000  Level FlightAware ADS-B
Wed 06:20:42 AM -12.1970 -49.9620 154° Southeast 497 572 37,000  Level FlightAware ADS-B
Wed 06:21:32 AM -12.2840 -49.9170 153° Southeast 497 572 37,000  Level FlightAware ADS-B
Wed 06:22:12 AM -12.3530 -49.8800 152° Southeast 497 572 37,000  Level FlightAware ADS-B
Wed 06:22:52 AM -12.4230 -49.8440 153° Southeast 497 572 37,000  Level FlightAware ADS-B
Wed 06:23:42 AM -12.5100 -49.7990 153° Southeast 497 572 37,000  Level FlightAware ADS-B
Wed 06:24:22 AM -12.5800 -49.7620 153° Southeast 497 572 37,000  Level FlightAware ADS-B
Wed 06:25:02 AM -12.6490 -49.7260 153° Southeast 497 572 37,000  Level FlightAware ADS-B
Wed 06:25:42 AM -12.7190 -49.6890 153° Southeast 497 572 37,000  Level FlightAware ADS-B
Wed 06:26:22 AM -12.7890 -49.6530 153° Southeast 497 572 37,000  Level FlightAware ADS-B
Wed 06:27:02 AM -12.8580 -49.6170 153° Southeast 497 572 37,000  Level FlightAware ADS-B
Wed 06:27:52 AM -12.9450 -49.5710 153° Southeast 497 572 37,000  Level FlightAware ADS-B
Wed 06:28:32 AM -13.0150 -49.5350 153° Southeast 497 572 37,000  Level FlightAware ADS-B
Wed 06:29:12 AM -13.0850 -49.4980 153° Southeast 497 572 37,000  Level FlightAware ADS-B
Wed 06:31:00 AM -13.2900 -49.3736 149° Southeast  Level Estimated
Wed 06:32:00 AM -13.4039 -49.3045 149° Southeast  Level Estimated
Wed 06:33:00 AM -13.5178 -49.2352 149° Southeast  Level Estimated
Wed 06:34:00 AM -13.6316 -49.1659 149° Southeast  Level Estimated
Wed 06:35:00 AM -13.7455 -49.0965 149° Southeast  Level Estimated
Wed 06:36:00 AM -13.8593 -49.0271 149° Southeast  Level Estimated
Wed 06:37:00 AM -13.9731 -48.9575 149° Southeast  Level Estimated
Wed 06:38:00 AM -14.0868 -48.8880 149° Southeast  Level Estimated
Wed 06:38:02 AM -14.4640 -48.7820 149° Southeast 498 573 37,000  Level FlightAware ADS-B
Wed 06:38:52 AM -14.5740 -48.7250 153° Southeast 498 573 37,000  Level FlightAware ADS-B
Wed 06:39:32 AM -14.6550 -48.6790 151° Southeast 499 574 37,000  Level FlightAware ADS-B
Wed 06:40:12 AM -14.7290 -48.6210 143° Southeast 501 577 37,000  Level FlightAware ADS-B
Wed 06:40:57 AM -14.8080 -48.5520 140° Southeast 502 578 37,000  Level FlightAware ADS-B
Wed 06:41:37 AM -14.8840 -48.4970 145° Southeast 499 574 37,000  Level FlightAware ADS-B
Wed 06:42:22 AM -14.9790 -48.4510 155° Southeast 498 573 37,000  Level FlightAware ADS-B
Wed 06:43:02 AM -15.0590 -48.4160 157° South 499 574 37,000  Level FlightAware ADS-B
Wed 06:43:42 AM -15.1520 -48.3750 157° South 500 575 37,000  Level FlightAware ADS-B
Wed 06:44:27 AM -15.2460 -48.3320 156° South 501 577 37,000  Level FlightAware ADS-B
Wed 06:45:07 AM -15.3300 -48.2940 156° South 501 577 37,000  Level FlightAware ADS-B
Wed 06:47:00 AM -15.5418 -48.1579 148° Southeast  Level Estimated
Wed 06:47:52 AM -15.6770 -48.1350 148° Southeast 505 581 37,000  Level FlightAware ADS-B
Wed 06:48:00 AM -15.6542 -48.0855 148° Southeast  Level Estimated
Wed 06:49:02 AM -15.8220 -48.0680 156° South 506 582 37,000  Level FlightAware ADS-B
Wed 06:49:42 AM -15.9070 -48.0220 153° Southeast 509 586 37,000  Level FlightAware ADS-B
Wed 06:50:42 AM -16.0350 -47.9450 150° Southeast 509 586 37,000  Level FlightAware ADS-B
Wed 06:51:27 AM -16.1200 -47.8920 149° Southeast 509 586 37,000  Level FlightAware ADS-B
Wed 06:52:07 AM -16.2060 -47.8420 151° Southeast 509 586 37,000  Level FlightAware ADS-B
Wed 06:53:07 AM -16.3350 -47.7650 150° Southeast 510 587 37,000  Level FlightAware ADS-B
Wed 06:53:47 AM -16.4200 -47.7130 150° Southeast 509 586 37,000  Level FlightAware ADS-B
Wed 06:54:27 AM -16.5010 -47.6640 150° Southeast 510 587 37,000  Level FlightAware ADS-B
Wed 06:55:12 AM -16.5930 -47.6090 150° Southeast 510 587 37,000  Level FlightAware ADS-B
Wed 06:55:52 AM -16.6750 -47.5600 150° Southeast 510 587 37,000  Level FlightAware ADS-B
Wed 06:56:47 AM -16.7790 -47.4950 149° Southeast 509 586 37,000  Level FlightAware ADS-B
Wed 06:57:27 AM -16.8480 -47.4520 149° Southeast 509 586 37,000  Level FlightAware ADS-B
Wed 06:58:07 AM -16.9160 -47.4090 149° Southeast 509 586 37,000  Level FlightAware ADS-B
Wed 06:58:57 AM -17.0020 -47.3550 149° Southeast 509 586 37,000  Level FlightAware ADS-B
Wed 06:59:37 AM -17.0710 -47.3120 149° Southeast 509 586 37,000  Level FlightAware ADS-B
Wed 07:00:17 AM -17.1400 -47.2690 149° Southeast 509 586 37,000  Level FlightAware ADS-B
Wed 07:00:57 AM -17.2080 -47.2260 149° Southeast 509 586 37,000  Level FlightAware ADS-B
Wed 07:01:37 AM -17.2770 -47.1830 149° Southeast 509 586 37,000  Level FlightAware ADS-B
Wed 07:02:17 AM -17.3450 -47.1390 148° Southeast 509 586 37,000  Level FlightAware ADS-B
Wed 07:02:57 AM -17.4140 -47.0960 149° Southeast 509 586 37,000  Level FlightAware ADS-B
Wed 07:03:37 AM -17.4830 -47.0530 149° Southeast 509 586 37,000  Level FlightAware ADS-B
Wed 07:04:17 AM -17.5510 -47.0100 149° Southeast 509 586 37,000  Level FlightAware ADS-B
Wed 07:05:07 AM -17.6370 -46.9560 149° Southeast 509 586 37,000  Level FlightAware ADS-B
Wed 07:05:47 AM -17.7060 -46.9120 149° Southeast 509 586 37,000  Level FlightAware ADS-B
Wed 07:08:00 AM -17.9508 -46.7424 147° Southeast  Level Estimated
Wed 07:09:00 AM -18.0612 -46.6658 147° Southeast  Level Estimated
Wed 07:10:00 AM -18.1716 -46.5890 147° Southeast  Level Estimated
Wed 07:11:00 AM -18.2819 -46.5122 147° Southeast  Level Estimated
Wed 07:12:00 AM -18.3922 -46.4352 146° Southeast  Level Estimated
Wed 07:13:00 AM -18.5025 -46.3582 146° Southeast  Level Estimated
Wed 07:14:00 AM -18.6127 -46.2810 146° Southeast  Level Estimated
Wed 07:15:00 AM -18.7229 -46.2038 146° Southeast  Level Estimated
Wed 07:16:00 AM -18.8368 -46.1238 146° Southeast  Level Estimated
Wed 07:17:00 AM -18.9507 -46.0437 146° Southeast  Level Estimated
Wed 07:18:00 AM -19.0646 -45.9634 146° Southeast  Level Estimated
Wed 07:19:00 AM -19.1785 -45.8831 146° Southeast  Level Estimated
Wed 07:20:00 AM -19.2923 -45.8027 146° Southeast  Level Estimated
Wed 07:21:00 AM -19.4061 -45.7221 146° Southeast  Level Estimated
Wed 07:22:00 AM -19.5198 -45.6414 146° Southeast  Level Estimated
Wed 07:23:00 AM -19.6335 -45.5607 146° Southeast  Level Estimated
Wed 07:24:00 AM -19.7472 -45.4798 146° Southeast  Level Estimated
Wed 07:25:00 AM -19.8608 -45.3988 146° Southeast  Level Estimated
Wed 07:25:47 AM -20.3200 -45.2870 146° Southeast 511 588 37,000  Level FlightAware ADS-B
Wed 07:26:27 AM -20.3970 -45.2290 145° Southeast 512 589 37,000  Level FlightAware ADS-B
Wed 07:27:12 AM -20.4840 -45.1610 144° Southeast 513 590 37,000  Level FlightAware ADS-B
Wed 07:28:12 AM -20.5940 -45.0750 144° Southeast 513 590 37,000  Level FlightAware ADS-B
Wed 07:28:47 AM -20.6610 -45.0260 146° Southeast 511 588 37,000  Level FlightAware ADS-B
Wed 07:29:32 AM -20.7420 -44.9670 146° Southeast 511 588 37,000  Level FlightAware ADS-B
Wed 07:30:17 AM -20.8520 -44.9170 157° South 506 582 37,000  Level FlightAware ADS-B
Wed 07:31:02 AM -20.9480 -44.8630 152° Southeast 506 582 37,000  Level FlightAware ADS-B
Wed 07:31:42 AM -21.0330 -44.8140 152° Southeast 507 583 37,000 -480 Level FlightAware ADS-B
Wed 07:32:17 AM -21.1040 -44.7680 149° Southeast 513 590 36,400 -1,920 Descending FlightAware ADS-B
Wed 07:32:57 AM -21.1770 -44.7200 148° Southeast 521 600 34,600 -2,733 Descending FlightAware ADS-B
Wed 07:33:47 AM -21.2840 -44.6490 148° Southeast 512 589 32,300 -2,842 Descending FlightAware ADS-B
Wed 07:34:32 AM -21.3800 -44.5850 148° Southeast 512 589 30,100 -2,471 Descending FlightAware ADS-B
Wed 07:35:12 AM -21.4500 -44.5390 149° Southeast 496 571 28,800 -2,047 Descending FlightAware ADS-B
Wed 07:35:57 AM -21.5410 -44.4790 148° Southeast 478 550 27,200 -2,160 Descending FlightAware ADS-B
Wed 07:36:27 AM -21.6000 -44.4390 148° Southeast 476 548 26,100 -2,100 Descending FlightAware ADS-B
Wed 07:37:17 AM -21.6940 -44.3770 149° Southeast 458 527 24,400 -2,084 Descending FlightAware ADS-B
Wed 07:38:02 AM -21.7760 -44.3220 148° Southeast 437 503 22,800 -1,482 Descending FlightAware ADS-B
Wed 07:38:42 AM -21.8400 -44.2790 148° Southeast 439 505 22,300 -375 Descending FlightAware ADS-B
Wed 07:39:22 AM -21.8990 -44.2390 148° Southeast 439 505 22,300  Level FlightAware ADS-B
Wed 07:40:02 AM -21.9570 -44.2000 148° Southeast 439 505 22,300  Level FlightAware ADS-B
Wed 07:40:42 AM -22.0160 -44.1600 148° Southeast 439 505 22,300  Level FlightAware ADS-B
Wed 07:41:32 AM -22.0890 -44.1110 148° Southeast 439 505 22,300  Level FlightAware ADS-B
Wed 07:42:12 AM -22.1470 -44.0710 147° Southeast 439 505 22,300 -3,703 Level FlightAware ADS-B
Wed 07:44:00 AM -22.3086 -43.8702 131° Southeast  Level Estimated
Wed 07:44:27 AM -22.3600 -43.9290 131° Southeast 328 377 11,500  Level FlightAware ADS-B
Wed 07:45:17 AM -22.4230 -43.8860 148° Southeast 322 371 10,200 -1,200 Descending FlightAware ADS-B
Wed 07:45:42 AM -22.4510 -43.8650 145° Southeast 305 351 10,000 -450 Descending FlightAware ADS-B
Wed 07:45:57 AM -22.4680 -43.8500 141° Southeast 289 333 9,900 -600 Descending FlightAware ADS-B
Wed 07:46:22 AM -22.4880 -43.8300 137° Southeast 274 315 9,600 -1,091 Descending FlightAware ADS-B
Wed 07:46:52 AM -22.5220 -43.7980 139° Southeast 271 312 8,900 -1,309 Descending FlightAware ADS-B
Wed 07:47:17 AM -22.5440 -43.7770 139° Southeast 270 311 8,400 -1,309 Descending FlightAware ADS-B
Wed 07:47:47 AM -22.5770 -43.7450 138° Southeast 267 307 7,700 -1,200 Descending FlightAware ADS-B
Wed 07:48:12 AM -22.5950 -43.7260 136° Southeast 268 308 7,300 -1,200 Descending FlightAware ADS-B
Wed 07:48:27 AM -22.6070 -43.7060 123° Southeast 284 327 6,900 -1,200 Descending FlightAware ADS-B
Wed 07:48:52 AM -22.6230 -43.6770 121° Southeast 285 328 6,500 -1,000 Descending FlightAware ADS-B
Wed 07:49:27 AM -22.6440 -43.6360 119° Southeast 279 321 5,900 -1,200 Descending FlightAware ADS-B
Wed 07:49:57 AM -22.6630 -43.5970 118° Southeast 269 310 5,200 -1,200 Descending FlightAware ADS-B
Wed 07:50:07 AM -22.6680 -43.5880 121° Southeast 261 300 5,100 -750 Descending FlightAware ADS-B
Wed 07:50:37 AM -22.6870 -43.5530 120° Southeast 244 281 4,700 -655 Descending FlightAware ADS-B
Wed 07:51:02 AM -22.6980 -43.5310 118° Southeast 232 267 4,500 -369 Descending FlightAware ADS-B
Wed 07:51:42 AM -22.7160 -43.4930 117° Southeast 229 264 4,300 -1,200 Descending FlightAware ADS-B
Wed 07:52:02 AM -22.7120 -43.4610 82° East 216 249 3,300 -2,800 Descending FlightAware ADS-B
Wed 07:52:12 AM -22.7130 -43.4460 94° East 216 249 2,900 -1,200 Descending FlightAware ADS-B
Wed 07:52:42 AM -22.7190 -43.4170 103° East 194 223 2,500 -686 Descending FlightAware ADS-B
Wed 07:52:47 AM -22.7200 -43.4170 180° South 191 220 2,500 -933 Level FlightAware ADS-B
Wed 07:53:27 AM -22.7420 -43.3830 125° Southeast 171 197 1,800 -923 Descending FlightAware ADS-B
Wed 07:53:52 AM -22.7520 -43.3680 126° Southeast 161 185 1,500 -840 Descending FlightAware ADS-B
Wed 07:54:17 AM -22.7630 -43.3500 124° Southeast 148 170 1,100 -900 Descending FlightAware ADS-B
Wed 07:54:32 AM -22.7690 -43.3410 126° Southeast 150 173 900 -800 Descending FlightAware ADS-B
Wed 07:55:02 AM -22.7810 -43.3240 127° Southeast 149 171 500 -800 Descending FlightAware ADS-B
Wed 07:55:17 AM -22.7870 -43.3140 123° Southeast 146 168 300 -436 Descending FlightAware ADS-B
Wed 07:55:57 AM -22.8020 -43.2920 126° Southeast 151 174 100 -300 Descending FlightAware ADS-B

Login

Don't have an account? Register now (free) for customized features, flight alerts, and more!